Погода в Кургане

Погода в Кургане : погода сейчас, прогноз погоды и архив. Всё, что Вы хотите узнать о погоде в Кургане!

Хотите узнать прогноз погоды в Кургане? Тогда Вам сюда: Погода в Кургане

Поиск расширенной информации на нашем сайте:

Другие новости

Новости СМИ2

Главная страница сайта

Новости сайта

02.10.2013

Напоминаем, что на нашем новом сайте вы можете получить высокодетализированные прогнозы погоды по пунктам России, СНГ и мира (включающие важные для авиации метеовеличины, такие как направление и скорость ветра, видимость, явления погоды, количество и форма облачности, нижняя и верхняя граница облачности), а также ознакомиться с разнообразными материалами по авиационной метеорологии и подборкой полезных ссылок на эту тему.

Сайт Метеоцентр.Азия посвящён разработке технологий оптимизации авиаметеорологического обслуживания, включая проектирование и перспективное создание нескольких автоматизированных авиаметеорологических систем:
- система выпуска высокодетальных прогностических карт явлений погоды для нижнего воздушного пространства по России и ближнему зарубежью;
- система верификации прогнозов TAF (выпускаемых синоптиками официальных АМСГ РФ и ближнего зарубежья) и AUTOTAF (выпускаемых сайтом Метеоцентр.Азия) - выявление ошибок, онлайн-сопоставление с фактической погодой METAR, автоматическое внесение коррективов в прогнозы при резком отклонении фактической погоды от прогноза, подсчёт оправдываемости прогнозов по элементам и в целом;
- система обработки, анализа и отображения авиаметеорологической информации для применения провайдерами метеорологической информации.


Погода в Кургане - сегодня

Время (UTC), дата Ветер
(°,м/с) 
Видим.   Явления Облачность Т
(°С)
Тd
(°С)
f(%) Тe
(°С)
Pmin
(гПа)
dP
(гПа)
Po
(мм)
O2
(г/м3)
Тmin Tmax R s Состояние
почвы
06 02.08.15 160 (Ю) 20000 м    8/1 1000 м кучево-дожд., верхняя 
[Cb cap|Ci fib]
+26.3 +12.5 42 +31  1013.1  -2.6  753  275           
09 02.08.15 150 (ЮВ) 3{10}  20000 м    8/3 1000 м кучево-дожд., верхняя 
[Cb cap|Ci fib]
+29.3 +12.9 36 +34  1010.1  -2.9  751  271           
12 02.08.15 140 (ЮВ) 2{10}  20000 м    8/3 1000 м кучево-дожд., верхняя 
[Cb cap|Ci fib]
+31.1 +13.3 34 +37  1007.7  -2.3  750  269           
15 02.08.15 320 (СЗ) 20000 м    10/3 1000 м кучево-дожд., средняя, верхняя 
[Cb cap|Ac trans|Ci fib]
+26.5 +16.8 55 +38  1007  -0.8  749  271    +31.3       
18 02.08.15 300 (СЗ) 4{10}  20000 м    3/0 верхняя 
[Ci fib]
+21.5 +14.3 64 +29  1011.1  3.8  752  278           
21 02.08.15 300 (СЗ) 10 км    3/0 верхняя 
[Ci fib]
+17.6 +11.4 67 +21  1013.1  1.9  753  283           
00 03.08.15 270 (З) 20000 м    4/0 верхняя 
[Ci fib]
+14.9 +10.7 76 +17  1014.2  754  286           
03 03.08.15 280 (З) 20000 м    ясно 
+17.5 +11.3 67 +21  1014.9  0.7  755  284  +14.8        сухая 
06 03.08.15 280 (З) 20000 м    10/6 600 м средняя, верхняя 
[Cu med, cong|Ac trans|Ci fib]
+21 +11.1 53 +24  1014.1  -0.7  754  280           
09 03.08.15 290 (З) 20000 м    8/6 600 м верхняя 
[Cu med, cong|Ci fib]
+23 +10.2 44 +24  1013.6  -0.7  754  278           
12 03.08.15 280 (З) 20000 м    6/4 1000 м верхняя 
[Cu med, cong|Ci fib]
+23.4 +9.6 42 +24  1013.5  0.1  754  278           
15 03.08.15 260 (З) 20000 м    3/0 верхняя 
[Ci fib]
+21.5 +10.4 49 +23  1013.4  -0.2  754  280    +24.1       
18 03.08.15 270 (З) 10 км    3/0 средняя 
[Ac trans]
+18.3 +9.9 58 +20  1014  0.5  754  283           
21 03.08.15 230 (ЮЗ) 10 км    ясно 
+15.2 +10.5 73 +19  1013.9  0.1  754  286           
00 04.08.15 190 (Ю) 20000 м    8/0 средняя, верхняя 
[Ac trans|Ci fib]
+12.5 +9.9 84 +14  1013.6  -0.4  754  289           
03 04.08.15 190 (Ю) 20000 м    10/0 верхняя 
[Ci fib]
+16.6 +11.7 73 +20  1013.3  -0.2  753  284  +12.1        сухая 
06 04.08.15 250 (З) 20000 м    8/6 1000 м верхняя 
[Cu hum|Ci fib]
+21.9 +10.7 49 +24  1011.6  -1.4  752  279           
09 04.08.15 250 (З) 20000 м    8/5 1000 м верхняя 
[Cu hum|Ci fib]
+22.8 +8 39 +23  1009.4  -2.2  751  278           
12 04.08.15 270 (З) 20000 м    8/8 1000 м кучево-дожд. 
[Cb cap]
+22 +9.7 45 +23  1007.5  -1.9  749  278           
15 04.08.15 270 (З) 3{18}  20000 м  в посл. час гроза{ливн. осадки}  8/5 600 м кучево-дожд., верхняя 
[Cb calv|Ci]
+16.2 +10.6 69 +19  1007.4  -0.3  749  283    +23.8       
18 04.08.15 240 (ЮЗ) 10 км  {гроза, ливн. осадки}  5/5 600 м кучево-дожд. 
[Cb cap]
+14.6 +10.3 75 +17  1006.8  -0.3  749  284           
21 04.08.15 230 (ЮЗ) 10 км    ясно 
+12.6 +9.3 80 +13  1005.9  -1  748  286           
00 05.08.15 240 (ЮЗ) 20000 м    ясно 
+11.7 +8.9 83 +12  1005.6  -0.4  748  287           
03 05.08.15 260 (З) 20000 м    8/8 480 м кучево-дожд. 
[Cb cap]
+13.8 +10 78 +15  1005.5  748  285  +11.6        сухая 
06 05.08.15 260 (З) 20000 м    8/8 1000 м кучево-дожд. 
[Cb cap]
+17 +8.9 59 +17  1005.4  748  282           
Время (UTC), дата Ветер
(°,м/с) 
Видим.   Явления Облачность Т
(°С)
Тd
(°С)
f(%) Тe
(°С)
Pmin
(гПа)
dP
(гПа)
Po
(мм)
O2
(г/м3)
Тmin Tmax R s Состояние
почвы

Для получения пояснительной информации подведите курсор к названию столбца.

ПОГОДА в Кургане - архив

Всё, что Вы хотите узнать о погоде в Кургане - удобно и подробно!

Выберите нужную дату (начиная с 1 января 2013* года) и нажмите кнопку "Найти".
Будут отображены архивные сводки погоды по пункту Курган, начиная с указанной даты.


Отображать данные в формате CSV (для использования в таблицах Excel)


Внимание! Наш архив погоды предназначен исключительно для личного некоммерческого использования в познавательных целях. Если Вам необходимы официальные справки о состоянии погоды (для производственных, юридических, коммерческих и т.п. целей), обращайтесь в органы Росгидромета.

*Примечание: данная дата относится к архиву по метеостанциям СССР (Россия, СНГ, Балтия).
Архив по метеостанциям Зарубежной Европы и Азии (кроме Китая) хранится 10 дней, по другим регионам земного шара (Китай, Африка, Америка, Австралия, Океания) - 1 день.

Курган - район местоположения метеостанции


Название, широта, долгота, высота метеостанции:
Курган 55.5°ш. 65.4°д. 74 м над ур. моря [Российская Федерация]

Дополнительная информация

В oтличие oт бoльшинства пoгoдных сайтoв мы публикуем пoдрoбную метеoинфoрмацию в детальнoм прoфессиoнальнoм фoрмате.

Характеристики температуры и влажнoсти вoздуха измеряются на высoте 2 м в тени вдали oт зданий и деревьев.
Скoрoсть ветра измеряется на высoте 10 м (на урoвне рoста челoвека скoрoсть ветра ниже в 1.5-2 раза). Если метеoстанция нахoдится в гoрoде или в лесу, тo скoрoсть ветра занижена на 2-4 м/с пo сравнению с oткрытым местoм. Скoрoсть ветра над акватoриями крупных рек и oзёр, а также на вершинах хoлмoв на 2-5 м/с выше, чем в oбычных услoвиях.
Атмoсфернoе давление в разных тoчках местнoсти мoжет значительнo oтличаться oт давления на метеoстанции, в зависимoсти oт услoвий рельефа (при пoдъёме на 10 м давление пoнижается примернo на 1 мм рт.ст.).